Regional Weather Roundup
Issued by NWS Jackson, KY

Home | Current Version | Previous Version | Graphics & Text | Print | Product List | Glossary On
Versions: 1 2 3 4 5 6 7 8 9 10 11 12 13 14 15 16 17 18 19 20 21 22 23 24 25 26 27 28 29 30 31 32 33 34 35 36 37 38 39 40 41 42 43 44 45 46 47 48 49 50
000
ASUS43 KJKL 021010
RWRJKL

EAST KENTUCKY HOURLY WEATHER ROUNDUP
NATIONAL WEATHER SERVICE JACKSON KY
600 AM EDT WED SEP 02 2015

NOTE: "FAIR" INDICATES FEW OR NO CLOUDS BELOW 12,000 FEET WITH
NO SIGNIFICANT WEATHER AND/OR OBSTRUCTIONS TO VISIBILITY.

* THESE REPORTS ARE NOT UNDER NWS QUALITY CONTROL AND MAY NOT
  REPORT WEATHER SUCH AS PRECIPITATION AND FOG.

KYZ079-080-083-085-087-088-110-112-115-119-120-021100
...EASTERN KENTUCKY...

CITY           SKY/WX    TMP DP  RH WIND       PRES   REMARKS
JACKSON        CLEAR     69  67  93 CALM      30.14F FOG
LONDON         PTCLDY    67  62  84 CALM      30.14S
SOMERSET*      CLEAR     63  63 100 CALM      30.14S FOG
MONTICELLO*    FOG       63  63 100 CALM      30.16S VSB 1/2
WILLIAMSBURG*  CLOUDY    63  63 100 CALM      30.14S
MIDDLESBORO*   CLOUDY    65  65 100 CALM      30.15S FOG
HAZARD APT*    SUNNY     66  66 100 CALM      30.15R FOG
BLACK MTN*       N/A     64  63  94 CALM        N/A
PIKEVILLE APT* CLEAR     68  68 100 S5        30.15S FOG
BIG SANDY*     SUNNY     68  68  99 CALM      30.14S FOG
MOREHEAD APT*  FOG       66  66 100 CALM      30.14F VSB 1/4
$$

KYZ035-036-041-042-044-050-067-078-099-021100
...CENTRAL KENTUCKY...

CITY           SKY/WX    TMP DP  RH WIND       PRES   REMARKS
MT STERLING*   CLEAR     64  64 100 CALM      30.15S FOG
FLEMING/MASON* CLEAR     66  66 100 CALM      30.14S FOG
DANVILLE*      CLEAR     63  63 100 CALM      30.14S
RICHMOND*      CLEAR     64  63  94 CALM      30.13R
LEXINGTON      CLEAR     66  63  90 CALM      30.13S
$$

KYZ091>093-OHZ055-061-077-WVZ005-015-034-035-042-021100
...SOUTHERN OHIO/WEST VIRGINIA...

CITY           SKY/WX    TMP DP  RH WIND       PRES   REMARKS
COVINGTON      CLEAR     67  65  93 CALM      30.11S FOG
COLUMBUS       MOCLDY    69  67  93 CALM      30.10S
DAYTON         CLEAR     68  67  96 S5        30.12S
WILMINGTON     CLEAR     64  62  93 CALM      30.12S FOG
HUNTINGTON     FOG       65  65 100 CALM      30.11S VSB 1/4
CHARLESTON     PTCLDY    66  64  93 CALM      30.12R
PINEVILLE*     CLOUDY    65  65 100 MISG      30.22S FOG
BECKLEY        CLEAR     63  60  90 CALM      30.20S FOG
BLUEFIELD      CLEAR     66  61  84 W3        30.22S
$$

VAZ002-007-008-TNZ017-027-036-066-071-021100
...SOUTHWEST VIRGINIA/EAST TENNESSEE...

CITY           SKY/WX    TMP DP  RH WIND       PRES   REMARKS
WISE*          CLEAR     66  64  94 CALM      30.22S
JONESVILLE*    PTSUNNY   63  63 100 CALM      30.18R
ABINGDON*      CLEAR     66  64  95 E3        30.18S
BRISTOL        MOCLDY    65  64  97 CALM      30.15S
KNOXVILLE      MOCLDY    69  69 100 CALM      30.11S
OAK RIDGE      PTCLDY    69  66  90 CALM      30.13S
CROSSVILLE     PTCLDY    66  63  90 CALM      30.17S
NASHVILLE      MOCLDY    71  67  87 CALM      30.11R
$$

...KEY TO REMARKS...
VSB - VISIBILITY IN MILES
WCI - WIND CHILL INDEX
HX  - HEAT INDEX

$$



USA.gov is the U.S. government's official web portal to all federal, state and local government web resources and services.